User: anonymous
Location: Unspecified
(0.0000°N, 0.0000°E)
Time: 13:02:59
(UTC+00:00)
Language:

COSMOS 2468 - Orbit

View from above orbital plane
View from above orbital plane
View from above satellite
View from above satellite

Ground track
Ground track

The orbit data is extracted from the following two-line orbital elements,

1 37154U 10043C   14292.19074453  .00000055  00000-0  32506-3 0  2946
2 37154 082.4663 208.2519 0012661 257.0986 102.8671 12.42889853186551
Epoch (UTC): 19 October 2014 04:34:40
Eccentricity: 0.0012661
inclination: 82.4663°
perigee height: 1484 km
apogee height: 1504 km
right ascension of ascending node: 208.2519°
argument of perigee: 257.0986°
revolutions per day: 12.42889853
mean anomaly at epoch: 102.8671°
orbit number at epoch: 18655

The dashed part of the orbit path shows where the satellite is in the earth's shadow,  

DLR